Date String (YYYY-MM-DD hh:mm:ss) UTC,Instrument flags,Ambient pressure (hPa),Sample flow (lpm),Bypass flow (lpm),Sample temperature (°C),Ambient temperature (°C),ASC tube jacket temperature (°C),LED temperature (°C),Box temperature (°C),Sample RH (%),Span deviation,Mass concentration (μg/m³),Mass concentration (μg/m³),Mass concentration (μg/m³)
DateTimeUTC,F1_M11,P_M11,Q1_M11,Q2_M11,T1_M11,T2_M11,T3_M11,T4_M11,T5_M11,U1_M11,ZSPAN_M11,X0_M11,X2_M11,X1_M11
2022-04-19 23:00:00,,0811.6,5.00,0.00,29.8,25.2,00.0,38.8,30.9,06.2,0000.0,0011.83,0004.47,0002.57
2022-04-19 23:01:00,,0811.7,4.99,0.00,29.6,25.4,00.0,38.7,30.9,06.2,0000.0,0011.55,0004.46,0002.55
2022-04-19 23:02:00,,0811.7,5.01,0.00,29.6,25.9,00.0,38.7,31.0,06.1,0000.0,0010.99,0004.47,0002.54
2022-04-19 23:03:00,,0811.7,5.00,0.00,29.5,26.4,00.0,38.6,31.1,06.0,0000.0,0011.32,0004.44,0002.52
2022-04-19 23:04:00,,0811.7,5.00,0.00,29.5,26.8,00.0,38.6,31.1,06.0,0000.0,0011.23,0004.37,0002.51
2022-04-19 23:05:00,,0811.7,4.98,0.00,29.5,27.2,00.0,38.6,31.2,06.1,0000.0,0011.19,0004.34,0002.51
2022-04-19 23:06:00,,0811.7,5.00,0.00,29.5,27.5,00.0,38.5,31.3,06.2,0000.0,0010.96,0004.33,0002.52
2022-04-19 23:07:00,,0811.7,5.00,0.00,29.5,27.8,00.0,38.5,31.3,06.2,0000.0,0010.83,0004.30,0002.50
2022-04-19 23:08:00,,0811.7,5.00,0.00,29.6,28.0,00.0,38.5,31.3,06.2,0000.0,0011.09,0004.27,0002.49
2022-04-19 23:09:00,,0811.7,5.01,0.00,29.6,28.1,00.0,38.5,31.3,06.2,0000.0,0010.98,0004.25,0002.49
2022-04-19 23:10:00,,0811.7,5.00,0.00,29.6,28.3,00.0,38.5,31.4,06.1,0000.0,0011.00,0004.26,0002.48
2022-04-19 23:11:00,,0811.7,4.99,0.00,29.6,28.4,00.0,38.5,31.4,06.0,0000.0,0011.48,0004.27,0002.46
2022-04-19 23:12:00,,0811.7,5.01,0.00,29.7,28.5,00.0,38.5,31.4,06.1,0000.0,0011.91,0004.26,0002.46
2022-04-19 23:13:00,,0811.7,5.00,0.00,29.7,28.6,00.0,38.6,31.5,06.2,0000.0,0011.96,0004.28,0002.45
2022-04-19 23:14:00,,0811.7,4.99,0.00,29.7,28.7,00.0,38.6,31.5,06.1,0000.0,0011.43,0004.25,0002.43
2022-04-19 23:15:00,,0811.6,5.01,0.00,29.7,28.7,00.0,38.6,31.5,06.0,0000.0,0011.48,0004.29,0002.40
2022-04-19 23:16:00,,0811.7,5.01,0.00,29.8,28.8,00.0,38.6,31.6,06.0,0000.0,0011.56,0004.25,0002.38
2022-04-19 23:17:00,,0811.7,4.99,0.00,29.8,28.8,00.0,38.6,31.6,06.1,0000.0,0011.61,0004.23,0002.34
2022-04-19 23:18:00,,0811.7,5.02,0.00,29.8,28.9,00.0,38.6,31.7,06.2,0000.0,0010.90,0004.15,0002.32
2022-04-19 23:19:00,,0811.6,4.99,0.00,29.8,28.9,00.0,38.7,31.7,06.2,0000.0,0010.18,0004.03,0002.31
2022-04-19 23:20:00,,0811.7,5.00,0.00,29.9,29.0,00.0,38.7,31.7,06.2,0000.0,0010.43,0003.99,0002.29
2022-04-19 23:21:00,,0811.7,5.01,0.00,29.9,29.0,00.0,38.7,31.7,06.2,0000.0,0010.47,0003.98,0002.25
2022-04-19 23:22:00,,0811.7,4.99,0.00,29.9,29.0,00.0,38.7,31.7,06.3,0000.0,0010.17,0003.94,0002.22
2022-04-19 23:23:00,,0811.7,5.02,0.00,29.9,29.1,00.0,38.7,31.7,06.4,0000.0,0009.78,0003.99,0002.19
2022-04-19 23:24:00,,0811.7,4.99,0.00,29.9,28.2,00.0,38.7,31.6,06.3,0000.0,0009.56,0003.91,0002.18
2022-04-19 23:25:00,,0811.7,5.01,0.00,29.8,25.9,00.0,38.7,31.0,06.2,0000.0,0009.63,0003.94,0002.19
2022-04-19 23:26:00,,0811.6,5.00,0.00,29.6,25.2,00.0,38.7,30.8,06.2,0000.0,0009.49,0003.85,0002.19
2022-04-19 23:27:00,,0811.5,4.98,0.00,29.5,25.6,00.0,38.6,30.9,06.2,0000.0,0009.35,0003.81,0002.17
2022-04-19 23:28:00,,0811.5,4.99,0.00,29.4,26.1,00.0,38.6,30.9,06.2,0000.0,0009.29,0003.81,0002.19
2022-04-19 23:29:00,,0811.5,5.01,0.00,29.4,26.6,00.0,38.5,31.0,06.4,0000.0,0009.49,0003.85,0002.19
2022-04-19 23:30:00,,0811.6,5.01,0.00,29.4,27.0,00.0,38.5,31.1,06.2,0000.0,0009.75,0003.88,0002.19
2022-04-19 23:31:00,,0811.6,4.99,0.00,29.4,27.3,00.0,38.5,31.1,06.3,0000.0,0010.14,0003.89,0002.16
2022-04-19 23:32:00,,0811.5,5.02,0.00,29.4,27.5,00.0,38.5,31.2,06.3,0000.0,0010.04,0003.91,0002.16
2022-04-19 23:33:00,,0811.5,5.00,0.00,29.4,27.7,00.0,38.4,31.2,06.4,0000.0,0010.96,0003.96,0002.18
2022-04-19 23:34:00,,0811.5,4.99,0.00,29.4,27.9,00.0,38.4,31.2,06.3,0000.0,0011.20,0003.93,0002.18
2022-04-19 23:35:00,,0811.5,5.01,0.00,29.5,28.0,00.0,38.4,31.2,06.3,0000.0,0011.40,0003.97,0002.16
2022-04-19 23:36:00,,0811.5,4.99,0.00,29.5,28.2,00.0,38.4,31.3,06.1,0000.0,0011.80,0004.01,0002.15
2022-04-19 23:37:00,,0811.5,5.01,0.00,29.5,28.3,00.0,38.4,31.3,06.2,0000.0,0012.02,0004.10,0002.16
2022-04-19 23:38:00,,0811.6,4.98,0.00,29.5,28.4,00.0,38.4,31.3,06.3,0000.0,0011.66,0004.10,0002.17
2022-04-19 23:39:00,,0811.5,5.01,0.00,29.5,28.5,00.0,38.4,31.3,06.5,0000.0,0011.75,0004.10,0002.16
2022-04-19 23:40:00,,0811.5,4.98,0.00,29.5,28.5,00.0,38.4,31.3,06.5,0000.0,0012.15,0004.09,0002.15
2022-04-19 23:41:00,,0811.5,5.01,0.00,29.6,28.6,00.0,38.5,31.4,06.3,0000.0,0012.05,0004.07,0002.13
2022-04-19 23:42:00,,0811.5,4.99,0.00,29.6,28.7,00.0,38.5,31.4,06.4,0000.0,0011.72,0004.12,0002.18
2022-04-19 23:43:00,,0811.5,5.00,0.00,29.6,28.7,00.0,38.5,31.4,06.4,0000.0,0011.86,0004.13,0002.19
2022-04-19 23:44:00,,0811.5,5.02,0.00,29.7,28.8,00.0,38.5,31.5,06.4,0000.0,0011.93,0004.09,0002.19
2022-04-19 23:45:00,,0811.5,4.99,0.00,29.7,28.8,00.0,38.5,31.5,06.4,0000.0,0011.88,0004.08,0002.19
2022-04-19 23:46:00,,0811.6,4.99,0.00,29.7,28.9,00.0,38.5,31.5,06.4,0000.0,0011.67,0004.06,0002.22
2022-04-19 23:47:00,,0811.6,5.01,0.00,29.7,28.9,00.0,38.6,31.6,06.4,0000.0,0011.14,0003.99,0002.23
2022-04-19 23:48:00,,0811.6,4.99,0.00,29.8,28.9,00.0,38.6,31.6,06.4,0000.0,0010.98,0003.91,0002.23
2022-04-19 23:49:00,,0811.6,5.00,0.00,29.8,29.0,00.0,38.6,31.6,06.5,0000.0,0011.14,0003.93,0002.21
2022-04-19 23:50:00,,0811.6,5.00,0.00,29.8,29.0,00.0,38.6,31.6,06.4,0000.0,0011.06,0003.91,0002.20
2022-04-19 23:51:00,,0811.6,5.01,0.00,29.8,29.0,00.0,38.6,31.6,06.3,0000.0,0011.03,0003.91,0002.19
2022-04-19 23:52:00,,0811.6,4.99,0.00,29.9,29.1,00.0,38.7,31.7,06.4,0000.0,0011.15,0003.92,0002.19
2022-04-19 23:53:00,,0811.6,5.00,0.00,29.9,28.8,00.0,38.7,31.6,06.2,0000.0,0011.55,0003.91,0002.16
2022-04-19 23:54:00,,0811.6,5.00,0.00,29.8,26.7,00.0,38.7,31.2,06.4,0000.0,0011.60,0003.89,0002.15
2022-04-19 23:55:00,,0811.6,4.99,0.00,29.7,26.3,00.0,38.7,31.1,06.3,0000.0,0011.26,0003.91,0002.14
2022-04-19 23:56:00,,0811.5,5.00,0.00,29.6,26.6,00.0,38.6,31.2,06.4,0000.0,0011.27,0003.90,0002.16
2022-04-19 23:57:00,,0811.5,4.99,0.00,29.6,27.0,00.0,38.6,31.2,06.4,0000.0,0011.37,0003.89,0002.18
2022-04-19 23:58:00,,0811.5,5.01,0.00,29.6,27.3,00.0,38.6,31.3,06.4,0000.0,0012.05,0003.89,0002.17
2022-04-19 23:59:00,,0811.6,5.00,0.00,29.6,27.6,00.0,38.6,31.3,06.4,0000.0,0012.15,0003.98,0002.18
